OK2CME-6 Weather Reports


time (UTC)temp
F
wind
direction
speed
knots
gust
knots
rain 1hr
in
rain 24hr
in
rain mn
in
humidity
%
barometer
mb
20260504024822 53 111 3.5 8.7 0.00 0.00 0.00 58 1019.1
20260504022822 53 150 2.6 9.6 0.00 0.00 0.00 57 1019.2
20260504020821 54 135 2.6 7.8 0.00 0.00 0.00 55 1019.1
20260504014821 53 191 3.5 8.7 0.00 0.00 0.00 55 1019.3
20260504012821 53 120 3.5 8.7 0.00 0.00 0.00 54 1019.1
20260504010821 53 99 2.6 6.1 0.00 0.00 0.00 53 1019.4
20260504004821 54 107 2.6 7.0 0.00 0.00 0.00 52 1019.1
20260504002821 54 96 2.6 7.0 0.00 0.00 0.00 51 1019.5
20260504000820 54 147 2.6 7.8 0.00 0.00 0.00 50 1019.4
20260503234820 55 117 2.6 7.8 0.00 0.00 0.00 49 1019.4
20260503232820 54 112 2.6 8.7 0.00 0.00 0.00 50 1019.5
20260503230820 55 119 3.5 8.7 0.00 0.00 0.00 48 1019.7
20260503224820 56 103 3.5 7.8 0.00 0.00 0.00 47 1019.7
20260503222819 56 117 3.5 9.6 0.00 0.00 0.00 46 1020.0
20260503220819 56 150 3.5 13.0 0.00 0.00 0.00 46 1019.8
20260503214819 56 148 3.5 13.0 0.00 0.00 0.00 47 1019.7
20260503212819 56 122 4.3 8.7 0.00 0.00 0.00 47 1019.7
20260503210819 57 113 3.5 8.7 0.00 0.00 0.00 47 1020.0
20260503204819 58 114 3.5 8.7 0.00 0.00 0.00 46 1019.9
20260503202818 58 82 3.5 8.7 0.00 0.00 0.00 48 1020.1
20260503200818 58 154 2.6 9.6 0.00 0.00 0.00 50 1020.4
20260503194818 58 95 2.6 6.1 0.00 0.00 0.00 52 1020.3
20260503192818 58 125 3.5 7.0 0.00 0.00 0.00 52 1020.1
20260503190818 60 121 2.6 7.0 0.00 0.00 0.00 50 1020.1
20260503184818 60 89 1.7 6.1 0.00 0.00 0.00 49 1020.2
20260503182817 62 110 2.6 6.1 0.00 0.00 0.00 47 1020.0
20260503180817 64 192 2.6 7.0 0.00 0.00 0.00 44 1020.0
20260503174817 65 181 4.3 12.2 0.00 0.00 0.00 42 1019.7
20260503172817 66 176 5.2 12.2 0.00 0.00 0.00 40 1019.9
20260503170817 67 187 6.1 13.0 0.00 0.00 0.00 40 1020.1
20260503150817 69 188 6.1 13.9 0.00 0.00 0.00 38 1020.5
20260503130817 69 198 7.8 15.6 0.00 0.00 0.00 38 1021.7
20260503110817 66 196 7.0 18.2 0.00 0.00 0.00 41 1022.8
20260503080817 61 187 7.0 14.8 0.00 0.00 0.00 48 1023.5
20260503072817 59 205 6.1 13.0 0.00 0.00 0.00 50 1023.4
20260503070817 58 181 6.1 16.5 0.00 0.00 0.00 51 1023.2
20260503054817 54 146 5.2 12.2 0.00 0.00 0.00 56 1022.6
20260503052817 53 149 5.2 13.0 0.00 0.00 0.00 57 1022.6
20260503050817 53 165 5.2 11.3 0.00 0.00 0.00 58 1022.7
20260503044817 51 126 3.5 7.8 0.00 0.00 0.00 61 1022.7
20260503042817 50 116 3.5 8.7 0.00 0.00 0.00 62 1022.6
20260503040817 49 127 3.5 7.8 0.00 0.00 0.00 62 1022.6
20260503034817 49 89 2.6 7.0 0.00 0.00 0.00 61 1022.5